Regional Weather Roundup
Issued by NWS

Home | Current Version | Previous Version | Text Only | Print | Product List | Glossary On
Versions: 1 2 3 4 5 6 7 8 9 10 11 12 13 14 15 16 17 18 19 20 21 22 23 24 25 26 27
000
ASUS44 KBMX 030210
RWRAL

ALABAMA REGIONAL WEATHER ROUNDUP
NATIONAL WEATHER SERVICE BIRMINGHAM AL
900 PM CDT MON MAY 02 2016

NOTE: "FAIR" INDICATES FEW OR NO CLOUDS BELOW 12,000 FEET
WITH NO SIGNIFICANT WEATHER AND/OR OBSTRUCTIONS TO VISIBILITY.

THE REMARK "TC" DENOTES TEMPERATURE IN DEGREES CELSIUS.

ALZ001>011-014-016>018-020-030300-
NORTH ALABAMA

CITY           SKY/WX    TMP DP  RH WIND       PRES   REMARKS
MUSCLE SHOALS  CLOUDY    65  61  87 NW8       29.96R
HUNTSVILLE     CLOUDY    68  64  87 NW6       29.93R
DECATUR        CLOUDY    66  63  90 NW8       29.94R
HALEYVILLE     MOCLDY    64  63  94 VRB3      29.98R
GADSDEN        MOCLDY    67  66  97 CALM      29.94S
$$

ALZ012-013-022-023-030>036-040>044-030300-
WEST CENTRAL ALABAMA

CITY           SKY/WX    TMP DP  RH WIND       PRES   REMARKS
TUSCALOOSA     CLOUDY    67  67 100 S6        29.94R
$$

ALZ015-024>027-033>036-040>044-030300-
CENTRAL ALABAMA

CITY           SKY/WX    TMP DP  RH WIND       PRES   REMARKS
BIRMINGHAM     CLOUDY    69  67  93 S9        29.95S
MONTGOMERY     CLOUDY    69  65  86 S5        29.93F
SHELBY CO ARPT MOCLDY    66  64  93 CALM      29.92F
MAXWELL AFB    NOT AVBL
GREENVILLE     MOCLDY    68  65  90 CALM      29.96S
$$

ALZ019-021-028-029-037-038-045>048-030300-
EAST CENTRAL ALABAMA

CITY           SKY/WX    TMP DP  RH WIND       PRES   REMARKS
ANNISTON       CLOUDY    68  65  90 CALM      29.93F
ALEXANDER CITY CLOUDY    67  67 100 CALM      29.93F
AUBURN         LGT RAIN  69  66  90 VRB3      29.97S
$$

ALZ051>064-030300-
SOUTHWEST ALABAMA

CITY           SKY/WX    TMP DP  RH WIND       PRES   REMARKS
MOBILE         PTCLDY    68  68 100 CALM      29.96R
BROOKLEY FIELD CLOUDY    71  69  93 SE3       29.96S
EVERGREEN      CLOUDY    70  68  93 CALM      29.96R
$$

ALZ049-050-065>069-030300-
SOUTHEAST ALABAMA

CITY           SKY/WX    TMP DP  RH WIND       PRES   REMARKS
DOTHAN         CLOUDY    76  67  73 SW7       29.99S
OZARK          NOT AVBL
TROY           LGT RAIN  70  66  87 CALM      29.96F
EUFAULA        FAIR      72  68  87 W3        29.94S
$$




USA.gov is the U.S. government's official web portal to all federal, state and local government web resources and services.